period_start,C,m1,H,J0,J1,J2,J3,J4,J5,JA,JB,JC,JD,JJ,JK,JN,#
2016-06-05 00:01:08,0.03,1.98,0.00,25.90,29.05,31.74,14.27,48.21,1017.44,2028.98,2735.07,2617.01,2963.00,600.19,590.93,42.64,0000 0000 0000 0000 000000
2016-06-05 00:06:09,0.05,1.98,0.00,25.90,29.05,31.74,14.25,48.13,1017.53,2028.97,2734.35,2616.67,2962.55,599.81,590.61,42.69,0000 0000 0000 0000 000000
2016-06-05 00:11:10,0.02,1.98,0.00,25.90,29.06,31.74,14.34,48.26,1017.53,2028.91,2733.75,2616.03,2962.01,600.14,590.89,42.74,0000 0000 0000 0000 000000
2016-06-05 00:16:11,-0.01,1.98,0.00,25.90,29.07,31.75,14.46,48.40,1017.58,2028.74,2733.35,2616.00,2961.98,600.20,590.92,42.79,0000 0000 0000 0000 000000
2016-06-05 00:21:12,-0.00,1.98,0.00,25.90,29.07,31.77,14.37,48.18,1017.54,2028.57,2733.10,2616.00,2961.97,600.07,590.79,42.84,0000 0000 0000 0000 000000
2016-06-05 00:26:13,-0.01,1.98,0.00,25.90,29.07,31.76,14.23,48.01,1017.57,2028.44,2733.01,2615.98,2961.77,600.02,590.87,42.89,0000 0000 0000 0000 000000
2016-06-05 00:31:15,-0.01,1.98,0.00,25.90,29.08,31.76,14.35,48.17,1017.58,2028.17,2732.98,2615.85,2961.17,600.09,590.91,42.94,0000 0000 0000 0000 000000
2016-06-05 00:36:16,0.00,1.98,0.00,25.90,29.09,31.77,14.37,48.27,1017.59,2028.07,2732.95,2615.52,2961.05,599.96,590.87,42.99,0000 0000 0000 0000 000000
2016-06-05 00:41:17,0.02,1.98,0.00,25.92,29.10,31.79,14.46,48.33,1017.59,2028.15,2732.90,2615.33,2961.03,600.31,591.06,43.04,0000 0000 0000 0000 000000
2016-06-05 00:46:19,0.02,1.98,0.00,25.93,29.10,31.79,14.36,48.04,1017.58,2028.10,2732.24,2615.04,2961.00,600.11,590.85,43.09,0000 0000 0000 0000 000000
2016-06-05 00:51:20,0.00,1.98,0.00,25.92,29.10,31.78,14.35,47.96,1017.32,2028.05,2732.00,2614.99,2960.92,600.27,590.89,43.14,0000 0000 0000 0000 000000
2016-06-05 00:56:21,0.04,1.98,0.00,25.93,29.10,31.79,14.35,48.39,1017.12,2028.04,2731.23,2614.80,2960.28,599.82,590.31,43.19,0000 0000 0000 0000 000000
2016-06-05 01:01:23,0.02,1.98,0.00,25.94,29.11,31.79,14.45,48.34,1017.15,2028.04,2730.94,2614.11,2960.00,599.99,590.64,43.24,0000 0000 0000 0000 000000
2016-06-05 01:06:24,0.01,1.98,0.00,25.94,29.12,31.80,14.45,48.52,1017.55,2028.01,2730.42,2614.00,2959.97,600.36,591.00,43.29,0000 0000 0000 0000 000000
2016-06-05 01:11:26,0.04,1.99,0.00,25.95,29.12,31.81,14.28,47.98,1017.59,2028.01,2729.63,2613.75,2959.50,600.00,590.73,43.34,0000 0000 0000 0000 000000
2016-06-05 01:16:27,0.13,1.99,0.00,25.94,29.12,31.83,14.29,47.91,1017.65,2028.02,2727.30,2612.49,2957.93,599.86,590.73,43.39,0000 0000 0000 0000 000000
2016-06-05 01:21:28,0.09,2.00,0.00,25.94,29.12,31.84,14.28,48.07,1017.96,2028.01,2725.45,2611.26,2956.78,599.92,590.88,43.44,0000 0000 0000 0000 000000
2016-06-05 01:26:30,0.01,2.00,0.00,25.95,29.13,31.82,14.25,47.98,1017.98,2028.00,2724.99,2610.99,2956.06,599.72,590.65,43.49,0000 0000 0000 0000 000000
2016-06-05 01:31:31,0.00,2.00,0.00,25.97,29.15,31.82,14.41,48.02,1018.08,2028.00,2724.93,2610.98,2956.01,600.12,591.03,43.55,0000 0000 0000 0000 000000
2016-06-05 01:36:32,0.00,2.00,0.00,25.96,29.15,31.83,14.34,48.26,1018.09,2028.00,2724.88,2610.97,2956.00,599.83,590.80,43.60,0000 0000 0000 0000 000000
2016-06-05 01:41:34,0.01,2.00,0.00,25.97,29.15,31.83,14.27,48.14,1018.09,2028.00,2724.51,2610.91,2956.00,599.88,590.85,43.65,0000 0000 0000 0000 000000
2016-06-05 01:46:35,0.03,2.00,0.00,25.99,29.16,31.83,14.33,48.13,1018.09,2028.00,2724.07,2610.27,2955.89,600.08,590.92,43.70,0000 0000 0000 0000 000000
2016-06-05 01:51:37,0.02,2.00,0.00,26.00,29.17,31.84,14.30,48.17,1018.09,2028.00,2723.80,2610.00,2955.12,599.84,591.01,43.75,0000 0000 0000 0000 000000
2016-06-05 01:56:38,0.04,2.00,0.00,26.00,29.17,31.85,14.50,48.44,1018.09,2028.00,2722.99,2609.54,2954.84,600.04,590.96,43.80,0000 0000 0000 0000 000000
2016-06-05 02:01:39,0.06,2.01,0.00,26.00,29.18,31.86,14.37,48.34,1018.09,2028.00,2721.85,2608.83,2954.02,600.06,590.89,43.85,0000 0000 0000 0000 000000
2016-06-05 02:06:41,0.12,2.01,0.00,26.02,29.20,31.86,14.40,48.15,1018.13,2028.00,2719.90,2607.66,2952.73,600.27,591.11,43.90,0000 0000 0000 0000 000000
2016-06-05 02:11:42,0.10,2.02,0.00,26.05,29.20,31.87,14.38,48.31,1018.40,2028.00,2717.77,2606.47,2951.44,600.33,591.30,43.95,0000 0000 0000 0000 000000
2016-06-05 02:16:43,0.09,2.02,0.00,26.07,29.21,31.87,14.40,48.52,1018.52,2027.99,2715.80,2605.28,2950.06,600.25,591.28,44.00,0000 0000 0000 0000 000000
2016-06-05 02:21:44,0.11,2.03,0.00,26.06,29.22,31.87,14.24,48.28,1018.53,2027.98,2713.77,2604.11,2948.73,599.65,590.76,44.05,0000 0000 0000 0000 000000
2016-06-05 02:26:46,0.11,2.03,0.00,26.07,29.22,31.88,14.35,48.27,1018.56,2027.97,2711.77,2602.87,2947.45,599.87,590.93,44.10,0000 0000 0000 0000 000000
2016-06-05 02:31:47,0.06,2.04,0.00,26.06,29.23,31.89,14.34,48.46,1018.53,2027.96,2710.22,2602.03,2946.42,600.00,590.98,44.15,0000 0000 0000 0000 000000
2016-06-05 02:36:48,0.05,2.04,0.00,26.08,29.25,31.90,14.42,48.35,1018.55,2027.96,2709.12,2601.33,2945.99,599.78,590.80,44.20,0000 0000 0000 0000 000000
2016-06-05 02:41:50,0.04,2.04,0.00,26.07,29.25,31.90,14.27,48.29,1018.57,2027.95,2708.24,2601.00,2945.26,599.69,590.63,44.25,0000 0000 0000 0000 000000
2016-06-05 02:46:51,0.01,2.05,0.00,26.09,29.26,31.92,14.25,48.21,1018.59,2027.94,2707.81,2600.88,2945.00,599.74,590.76,44.30,0000 0000 0000 0000 000000
2016-06-05 02:51:52,0.04,2.05,0.00,26.07,29.27,31.94,14.29,48.37,1018.64,2027.95,2707.05,2600.15,2944.87,599.87,590.98,44.36,0000 0000 0000 0000 000000
2016-06-05 02:56:53,0.01,2.05,0.00,26.07,29.27,31.95,14.39,48.31,1018.64,2027.88,2706.94,2600.00,2944.18,600.02,591.11,44.41,0000 0000 0000 0000 000000
2016-06-05 03:01:54,0.00,2.05,0.00,26.08,29.29,31.95,14.37,48.24,1018.81,2027.85,2706.56,2599.99,2944.02,600.25,591.45,44.46,0000 0000 0000 0000 000000
2016-06-05 03:06:56,-0.01,2.05,0.00,26.10,29.30,31.95,14.34,48.39,1019.06,2027.74,2706.05,2599.94,2944.00,599.69,591.03,44.51,0000 0000 0000 0000 000000
2016-06-05 03:11:57,-0.03,2.05,0.00,26.09,29.30,31.96,14.31,48.49,1019.05,2027.20,2706.00,2599.51,2943.98,599.90,591.25,44.56,0000 0000 0000 0000 000000
2016-06-05 03:16:59,0.00,2.05,0.00,26.09,29.31,31.96,14.32,48.25,1019.05,2027.08,2705.95,2599.09,2943.83,599.68,591.00,44.61,0000 0000 0000 0000 000000
2016-06-05 03:22:00,0.01,2.05,0.00,26.10,29.32,31.97,14.38,48.26,1019.06,2027.03,2705.73,2599.01,2943.29,600.02,591.21,44.66,0000 0000 0000 0000 000000
2016-06-05 03:27:01,0.01,2.05,0.00,26.09,29.32,31.96,14.43,48.27,1019.07,2027.02,2705.22,2599.00,2943.03,600.67,591.76,44.71,0000 0000 0000 0000 000000
2016-06-05 03:32:03,0.00,2.05,0.00,26.10,29.32,31.98,14.44,48.38,1019.11,2027.02,2704.97,2598.88,2942.97,599.96,591.28,44.76,0000 0000 0000 0000 000000
2016-06-05 03:37:04,0.06,2.05,0.00,26.10,29.33,31.98,14.45,48.37,1019.36,2027.00,2704.12,2598.10,2942.25,599.97,591.46,44.81,0000 0000 0000 0000 000000
2016-06-05 03:42:05,0.09,2.05,0.00,26.12,29.35,32.00,14.36,48.30,1019.49,2027.00,2702.63,2597.42,2941.43,599.88,591.42,44.86,0000 0000 0000 0000 000000
2016-06-05 03:47:06,0.10,2.06,0.00,26.11,29.35,32.00,14.30,48.13,1019.55,2027.00,2700.27,2596.07,2939.99,599.75,591.34,44.91,0000 0000 0000 0000 000000
2016-06-05 03:52:08,0.06,2.07,0.00,26.10,29.35,32.00,14.43,48.36,1019.55,2027.00,2699.10,2595.14,2939.06,600.50,591.94,44.96,0000 0000 0000 0000 000000
2016-06-05 03:57:09,0.02,2.07,0.00,26.11,29.35,32.00,14.37,48.23,1019.55,2027.00,2698.48,2594.99,2938.69,600.12,591.57,45.01,0000 0000 0000 0000 000000
2016-06-05 04:02:10,0.04,2.07,0.00,26.12,29.37,32.01,14.32,48.04,1019.55,2027.00,2698.02,2594.49,2938.06,599.96,591.52,45.06,0000 0000 0000 0000 000000
2016-06-05 04:07:11,0.01,2.07,0.00,26.12,29.37,32.02,14.37,48.02,1019.56,2027.00,2697.96,2594.04,2937.99,600.09,591.50,45.11,0000 0000 0000 0000 000000
2016-06-05 04:12:12,0.01,2.07,0.00,26.12,29.37,32.01,14.30,48.10,1019.56,2027.00,2697.62,2594.00,2937.96,599.85,591.34,45.16,0000 0000 0000 0000 000000
2016-06-05 04:17:14,0.02,2.07,0.00,26.12,29.37,32.01,14.39,48.33,1019.71,2027.00,2697.04,2593.99,2937.43,600.36,591.98,45.21,0000 0000 0000 0000 000000
2016-06-05 04:22:15,0.04,2.07,0.00,26.12,29.39,32.02,14.36,48.17,1019.90,2027.00,2696.66,2593.45,2937.01,599.94,591.65,45.26,0000 0000 0000 0000 000000
2016-06-05 04:27:16,0.11,2.08,0.00,26.12,29.40,32.04,14.38,48.33,1020.03,2027.00,2695.04,2592.43,2935.88,599.83,591.68,45.32,0000 0000 0000 0000 000000
2016-06-05 04:32:18,0.23,2.09,0.00,26.12,29.40,32.04,14.29,48.15,1019.98,2026.99,2691.21,2589.75,2932.98,599.82,591.60,45.37,0000 0000 0000 0000 000000
2016-06-05 04:37:19,0.16,2.10,0.00,26.13,29.40,32.03,14.40,48.20,1019.90,2026.98,2688.00,2588.04,2931.08,600.06,591.72,45.42,0000 0000 0000 0000 000000
2016-06-05 04:42:21,0.12,2.11,0.00,26.12,29.40,32.05,14.39,48.20,1020.02,2026.98,2685.25,2586.28,2929.21,600.19,591.82,45.47,0000 0000 0000 0000 000000
2016-06-05 04:47:22,0.00,2.11,0.00,26.13,29.41,32.05,14.31,48.06,1020.05,2026.97,2684.99,2586.00,2929.00,599.68,591.52,45.52,0000 0000 0000 0000 000000
2016-06-05 04:52:23,0.02,2.11,0.00,26.14,29.42,32.08,14.29,48.09,1020.11,2026.95,2684.56,2585.99,2928.90,600.09,591.90,45.57,0000 0000 0000 0000 000000
2016-06-05 04:57:24,0.06,2.11,0.00,26.13,29.42,32.08,14.41,48.15,1020.08,2026.95,2683.70,2585.36,2928.09,600.12,591.92,45.62,0000 0000 0000 0000 000000
2016-06-05 05:02:25,0.08,2.11,0.00,26.14,29.42,32.08,14.49,48.35,1020.43,2026.95,2682.49,2584.29,2926.83,600.47,592.40,45.67,0000 0000 0000 0000 000000
2016-06-05 05:07:27,0.07,2.12,0.00,26.14,29.42,32.08,14.39,48.37,1020.52,2026.93,2681.10,2583.23,2925.87,599.98,592.09,45.72,0000 0000 0000 0000 000000
2016-06-05 05:12:28,0.03,2.12,0.00,26.14,29.42,32.05,14.38,48.05,1020.52,2026.91,2680.32,2582.97,2925.07,600.02,592.10,45.77,0000 0000 0000 0000 000000
2016-06-05 05:17:30,0.02,2.12,0.00,26.14,29.42,32.07,14.35,48.05,1020.54,2026.92,2680.00,2582.46,2925.00,599.93,591.90,45.82,0000 0000 0000 0000 000000
2016-06-05 05:22:31,0.04,2.12,0.00,26.12,29.43,32.06,14.40,48.23,1020.54,2026.88,2679.50,2582.01,2924.44,600.01,591.95,45.87,0000 0000 0000 0000 000000
2016-06-05 05:27:32,0.05,2.13,0.00,26.12,29.44,32.08,14.37,48.13,1020.54,2026.93,2678.62,2581.49,2923.88,600.21,592.31,45.92,0000 0000 0000 0000 000000
2016-06-05 05:32:33,0.07,2.13,0.00,26.12,29.45,32.10,14.34,48.09,1020.66,2026.93,2677.27,2580.73,2923.00,599.76,591.92,45.97,0000 0000 0000 0000 000000
2016-06-05 05:37:35,0.05,2.13,0.00,26.12,29.45,32.09,14.36,48.27,1020.97,2026.94,2676.45,2580.03,2922.19,599.95,592.39,46.02,0000 0000 0000 0000 000000
2016-06-05 05:42:36,0.01,2.13,0.00,26.13,29.45,32.09,14.45,48.42,1020.83,2026.91,2675.81,2579.87,2921.93,600.26,592.49,46.07,0000 0000 0000 0000 000000
2016-06-05 05:47:37,0.06,2.14,0.00,26.14,29.45,32.10,14.37,47.99,1020.55,2026.92,2674.98,2579.12,2921.17,599.56,591.77,46.12,0000 0000 0000 0000 000000
2016-06-05 05:52:39,0.04,2.14,0.00,26.15,29.45,32.12,14.48,48.41,1020.56,2026.75,2673.90,2578.68,2920.61,600.50,592.55,46.17,0000 0000 0000 0000 000000
2016-06-05 05:57:40,0.09,2.14,0.00,26.13,29.45,32.12,14.38,48.17,1020.74,2026.67,2672.35,2577.67,2919.57,599.62,592.01,46.23,0000 0000 0000 0000 000000
2016-06-05 06:02:42,0.13,2.15,0.00,26.14,29.45,32.10,14.32,48.08,1020.87,2026.50,2669.51,2576.17,2917.83,600.02,592.21,46.28,0000 0000 0000 0000 000000
2016-06-05 06:07:43,0.11,2.16,0.00,26.14,29.46,32.08,14.33,48.01,1020.92,2026.60,2667.40,2575.04,2916.46,599.88,592.15,46.33,0000 0000 0000 0000 000000
2016-06-05 06:12:44,0.06,2.16,0.00,26.15,29.47,32.10,14.42,48.14,1020.74,2026.68,2666.73,2574.52,2916.01,599.86,592.12,46.38,0000 0000 0000 0000 000000
2016-06-05 06:17:46,0.02,2.16,0.00,26.15,29.47,32.11,14.41,48.23,1020.61,2026.58,2665.74,2573.94,2915.40,600.04,592.10,46.43,0000 0000 0000 0000 000000
2016-06-05 06:22:47,0.10,2.16,0.00,26.15,29.47,32.12,14.28,48.24,1020.89,2026.34,2663.87,2572.75,2914.16,599.79,592.03,46.48,0000 0000 0000 0000 000000
2016-06-05 06:27:48,0.14,2.17,0.00,26.15,29.47,32.10,14.35,48.21,1021.01,2026.43,2661.64,2571.52,2912.69,599.89,592.19,46.53,0000 0000 0000 0000 000000
2016-06-05 06:32:49,0.07,2.18,0.00,26.15,29.47,32.11,14.27,47.96,1021.01,2026.23,2659.62,2570.26,2911.42,599.80,592.08,46.58,0000 0000 0000 0000 000000
2016-06-05 06:37:51,0.09,2.18,0.00,26.15,29.47,32.12,14.40,48.08,1021.01,2026.34,2658.21,2569.55,2910.38,600.21,592.57,46.63,0000 0000 0000 0000 000000
2016-06-05 06:42:52,0.01,2.18,0.00,26.17,29.47,32.11,14.32,48.05,1021.01,2026.34,2657.99,2569.04,2910.01,599.82,592.11,46.68,0000 0000 0000 0000 000000
2016-06-05 06:47:53,0.00,2.18,0.00,26.17,29.47,32.12,14.38,48.27,1021.03,2026.26,2657.66,2569.00,2910.00,600.07,592.28,46.73,0000 0000 0000 0000 000000
2016-06-05 06:52:54,-0.00,2.18,0.00,26.16,29.48,32.12,14.38,48.06,1021.16,2026.24,2657.11,2569.00,2909.96,600.56,592.94,46.78,0000 0000 0000 0000 000000
2016-06-05 06:57:56,0.02,2.18,0.00,26.16,29.49,32.10,14.39,48.38,1021.11,2026.20,2657.00,2568.95,2909.47,599.98,592.32,46.83,0000 0000 0000 0000 000000
2016-06-05 07:02:57,0.03,2.18,0.00,26.15,29.49,32.12,14.35,48.27,1021.31,2026.12,2656.68,2568.33,2909.04,599.94,592.44,46.88,0000 0000 0000 0000 000000
2016-06-05 07:07:58,0.01,2.19,0.00,26.16,29.50,32.10,14.31,47.92,1021.43,2026.12,2656.07,2568.04,2908.99,599.80,592.32,46.93,0000 0000 0000 0000 000000
2016-06-05 07:13:00,0.00,2.19,0.00,26.17,29.50,32.10,14.36,48.12,1021.48,2026.16,2656.00,2568.00,2908.98,599.99,592.52,46.98,0000 0000 0000 0000 000000
2016-06-05 07:18:01,0.00,2.19,0.00,26.17,29.50,32.13,14.37,48.17,1021.50,2026.08,2655.95,2567.99,2908.63,600.20,592.49,47.03,0000 0000 0000 0000 000000
2016-06-05 07:23:02,0.04,2.19,0.00,26.16,29.50,32.13,14.43,48.17,1021.50,2026.09,2655.20,2567.69,2908.05,600.22,592.80,47.08,0000 0000 0000 0000 000000
2016-06-05 07:28:04,0.01,2.19,0.00,26.17,29.50,32.13,14.50,48.40,1021.50,2026.11,2655.00,2567.17,2908.00,600.34,592.90,47.13,0000 0000 0000 0000 000000
2016-06-05 07:33:05,0.17,2.19,0.00,26.17,29.50,32.15,14.38,48.25,1021.51,2026.11,2653.21,2565.97,2906.53,599.89,592.44,47.19,0000 0000 0000 0000 000000
2016-06-05 07:38:06,0.41,2.21,0.00,26.16,29.50,32.15,14.40,48.16,1021.53,2026.06,2647.07,2561.88,2901.98,599.98,592.57,47.24,0000 0000 0000 0000 000000
2016-06-05 07:43:08,1.59,2.27,0.00,26.15,29.50,32.14,14.28,48.15,1021.51,2026.06,2624.94,2546.98,2885.47,599.73,592.34,47.29,0000 0000 0000 0000 000000
2016-06-05 07:48:09,0.29,2.32,0.00,26.15,29.50,32.13,14.29,48.20,1021.51,2026.04,2614.10,2539.33,2877.31,599.49,592.09,47.34,0000 0000 0000 0000 000000
2016-06-05 07:53:10,0.01,2.32,0.00,26.15,29.50,32.15,14.41,48.56,1021.54,2026.03,2613.08,2539.00,2876.98,600.07,592.82,47.39,0000 0000 0000 0000 000000
2016-06-05 07:58:11,0.01,2.32,0.00,26.15,29.50,32.15,14.38,48.38,1021.59,2026.01,2612.98,2538.92,2876.41,600.05,592.63,47.44,0000 0000 0000 0000 000000
2016-06-05 08:03:12,0.04,2.32,0.00,26.14,29.50,32.14,14.31,48.62,1021.53,2026.03,2612.66,2538.41,2876.03,599.76,592.29,47.49,0000 0000 0000 0000 000000
2016-06-05 08:08:13,0.02,2.32,0.00,26.14,29.50,32.12,14.40,48.31,1021.60,2026.03,2612.06,2538.05,2876.00,600.13,592.83,47.54,0000 0000 0000 0000 000000
2016-06-05 08:13:15,0.00,2.32,0.00,26.15,29.50,32.12,14.32,48.13,1021.86,2026.00,2612.00,2538.00,2875.98,599.74,592.50,47.59,0000 0000 0000 0000 000000
2016-06-05 08:18:16,0.00,2.32,0.00,26.14,29.50,32.14,14.33,48.13,1021.74,2026.01,2611.98,2538.00,2875.96,600.01,592.74,47.64,0000 0000 0000 0000 000000
2016-06-05 08:23:18,0.02,2.32,0.00,26.13,29.50,32.16,14.35,48.23,1021.94,2026.03,2611.74,2537.99,2875.71,599.83,592.86,47.69,0000 0000 0000 0000 000000
2016-06-05 08:28:19,0.02,2.32,0.00,26.14,29.50,32.16,14.34,48.12,1021.96,2026.02,2611.14,2537.96,2875.23,599.97,592.80,47.74,0000 0000 0000 0000 000000
2016-06-05 08:33:21,0.01,2.32,0.00,26.14,29.50,32.14,14.31,48.13,1021.97,2026.00,2611.00,2537.63,2875.03,599.70,592.56,47.79,0000 0000 0000 0000 000000
2016-06-05 08:38:22,0.01,2.33,0.00,26.12,29.50,32.15,14.38,48.22,1021.99,2026.00,2610.99,2537.23,2875.00,600.25,593.31,47.84,0000 0000 0000 0000 000000
2016-06-05 08:43:23,0.01,2.33,0.00,26.12,29.50,32.16,14.36,48.48,1021.99,2026.00,2610.81,2537.03,2875.00,599.70,592.69,47.89,0000 0000 0000 0000 000000
2016-06-05 08:48:25,0.01,2.33,0.00,26.12,29.50,32.16,14.27,48.15,1021.99,2026.00,2610.21,2537.01,2874.97,599.68,592.69,47.94,0000 0000 0000 0000 000000
2016-06-05 08:53:26,0.01,2.33,0.00,26.11,29.50,32.16,14.41,48.29,1022.03,2026.01,2610.01,2537.00,2874.66,600.00,592.88,47.99,0000 0000 0000 0000 000000
2016-06-05 08:58:27,0.01,2.33,0.00,26.10,29.49,32.14,14.33,48.13,1022.34,2026.01,2609.88,2536.97,2874.09,599.91,593.22,48.05,0000 0000 0000 0000 000000
2016-06-05 09:03:29,0.05,2.33,0.00,26.11,29.48,32.13,14.46,48.41,1022.48,2026.03,2609.10,2536.36,2873.99,599.94,593.18,48.10,0000 0000 0000 0000 000000
2016-06-05 09:08:30,0.03,2.33,0.00,26.10,29.47,32.15,14.41,48.47,1022.48,2026.02,2608.53,2536.00,2873.33,600.31,593.74,48.15,0000 0000 0000 0000 000000
2016-06-05 09:13:31,0.04,2.33,0.00,26.11,29.47,32.11,14.44,48.48,1022.49,2026.02,2607.75,2535.55,2872.93,599.83,593.19,48.20,0000 0000 0000 0000 000000
2016-06-05 09:18:33,0.05,2.34,0.00,26.09,29.47,32.14,14.45,48.42,1022.54,2026.01,2606.86,2534.91,2872.08,600.10,593.37,48.25,0000 0000 0000 0000 000000
2016-06-05 09:23:34,0.07,2.34,0.00,26.10,29.47,32.13,14.35,47.97,1022.70,2026.01,2605.72,2534.07,2871.25,599.75,593.14,48.30,0000 0000 0000 0000 000000
2016-06-05 09:28:35,0.07,2.34,0.00,26.10,29.46,32.13,14.43,48.52,1022.91,2026.00,2604.64,2533.31,2870.38,599.89,593.48,48.35,0000 0000 0000 0000 000000
2016-06-05 09:33:36,0.05,2.35,0.00,26.09,29.45,32.11,14.52,48.50,1022.95,2026.00,2603.74,2532.74,2869.69,600.11,593.66,48.40,0000 0000 0000 0000 000000
2016-06-05 09:38:38,0.03,2.35,0.00,26.09,29.45,32.11,14.41,48.36,1022.96,2026.00,2602.98,2532.03,2869.02,600.06,593.56,48.45,0000 0000 0000 0000 000000
2016-06-05 09:43:40,0.05,2.35,0.00,26.08,29.45,32.12,14.27,48.09,1022.98,2026.00,2602.14,2531.85,2868.55,599.42,593.12,48.50,0000 0000 0000 0000 000000
2016-06-05 09:48:41,0.04,2.35,0.00,26.07,29.44,32.11,14.35,48.36,1023.10,2026.00,2601.60,2531.11,2868.00,599.96,593.59,48.55,0000 0000 0000 0000 000000
2016-06-05 09:53:42,0.05,2.36,0.00,26.07,29.42,32.11,14.44,48.33,1023.43,2026.00,2600.59,2530.75,2867.20,599.83,593.72,48.60,0000 0000 0000 0000 000000
2016-06-05 09:58:44,0.03,2.36,0.00,26.07,29.42,32.12,14.47,48.37,1023.45,2026.00,2600.00,2530.06,2866.97,600.41,594.29,48.65,0000 0000 0000 0000 000000
2016-06-05 10:03:45,0.04,2.36,0.00,26.05,29.42,32.12,14.35,48.33,1023.45,2026.00,2599.33,2529.98,2866.34,600.01,593.96,48.70,0000 0000 0000 0000 000000
2016-06-05 10:08:46,0.02,2.36,0.00,26.07,29.41,32.10,14.34,47.91,1023.45,2026.00,2598.98,2529.43,2866.00,599.72,593.68,48.75,0000 0000 0000 0000 000000
2016-06-05 10:13:48,0.02,2.36,0.00,26.06,29.40,32.07,14.33,48.30,1023.46,2026.00,2598.32,2529.02,2865.95,600.22,594.07,48.80,0000 0000 0000 0000 000000
2016-06-05 10:18:49,0.01,2.36,0.00,26.06,29.40,32.08,14.39,48.47,1023.45,2026.00,2598.00,2529.00,2865.44,599.90,593.81,48.85,0000 0000 0000 0000 000000
2016-06-05 10:23:51,0.01,2.37,0.00,26.07,29.40,32.09,14.47,48.45,1023.45,2026.00,2597.95,2528.96,2865.06,600.16,593.90,48.91,0000 0000 0000 0000 000000
2016-06-05 10:28:52,0.03,2.37,0.00,26.06,29.40,32.07,14.40,48.30,1023.45,2026.00,2597.23,2528.63,2865.00,600.30,594.15,48.96,0000 0000 0000 0000 000000
2016-06-05 10:33:54,0.01,2.37,0.00,26.05,29.38,32.07,14.38,48.45,1023.54,2026.00,2597.00,2528.11,2864.97,599.95,593.87,49.01,0000 0000 0000 0000 000000
2016-06-05 10:38:55,0.00,2.37,0.00,26.04,29.37,32.05,14.43,48.32,1023.76,2026.01,2596.91,2528.02,2864.78,600.14,594.25,49.06,0000 0000 0000 0000 000000
2016-06-05 10:43:57,0.02,2.37,0.00,26.02,29.37,32.05,14.39,48.44,1023.88,2026.01,2596.43,2528.00,2864.31,599.83,593.97,49.11,0000 0000 0000 0000 000000
2016-06-05 10:48:58,0.00,2.37,0.00,26.00,29.36,32.05,14.42,48.32,1023.93,2026.00,2596.09,2528.00,2864.07,599.97,594.29,49.16,0000 0000 0000 0000 000000
2016-06-05 10:53:59,0.00,2.37,0.00,25.99,29.35,32.03,14.41,48.29,1023.94,2026.01,2596.01,2528.00,2864.06,599.70,594.01,49.21,0000 0000 0000 0000 000000
2016-06-05 10:59:01,0.00,2.37,0.00,25.97,29.35,32.03,14.42,48.38,1023.94,2026.02,2596.00,2527.99,2864.02,600.12,594.43,49.26,0000 0000 0000 0000 000000
2016-06-05 11:04:02,0.00,2.37,0.00,25.97,29.35,32.03,14.42,48.36,1023.97,2026.05,2596.00,2527.99,2864.01,600.24,594.58,49.31,0000 0000 0000 0000 000000
2016-06-05 11:09:03,0.00,2.37,0.00,25.97,29.32,32.00,14.45,48.30,1024.00,2026.07,2596.00,2527.99,2864.00,600.10,594.50,49.36,0000 0000 0000 0000 000000
2016-06-05 11:14:05,0.00,2.37,0.00,25.97,29.32,32.01,14.39,48.27,1023.95,2026.06,2596.00,2527.98,2864.00,600.00,594.45,49.41,0000 0000 0000 0000 000000
2016-06-05 11:19:06,0.01,2.37,0.00,25.97,29.32,32.00,14.40,48.32,1024.01,2026.14,2595.96,2527.97,2864.00,600.17,594.57,49.46,0000 0000 0000 0000 000000
2016-06-05 11:24:07,0.01,2.37,0.00,25.95,29.30,31.99,14.40,48.42,1024.38,2026.17,2595.84,2527.97,2864.00,600.01,594.75,49.51,0000 0000 0000 0000 000000
2016-06-05 11:29:09,0.02,2.37,0.00,25.95,29.30,31.98,14.44,48.47,1024.41,2026.28,2595.55,2527.89,2864.00,599.93,594.59,49.56,0000 0000 0000 0000 000000
2016-06-05 11:34:10,0.01,2.37,0.00,25.95,29.30,31.97,14.45,48.42,1024.42,2026.24,2595.27,2527.80,2863.99,599.94,594.70,49.61,0000 0000 0000 0000 000000
2016-06-05 11:39:12,0.01,2.37,0.00,25.95,29.29,31.96,14.41,48.17,1024.43,2026.21,2595.08,2527.61,2863.98,599.96,594.55,49.66,0000 0000 0000 0000 000000
2016-06-05 11:44:13,0.02,2.37,0.00,25.94,29.27,31.95,14.45,48.21,1024.43,2026.44,2595.08,2527.71,2863.98,599.99,594.71,49.71,0000 0000 0000 0000 000000
2016-06-05 11:49:15,-0.01,2.37,0.00,25.93,29.27,31.97,14.42,48.23,1024.46,2026.39,2595.03,2527.54,2863.99,600.18,594.81,49.76,0000 0000 0000 0000 000000
2016-06-05 11:54:16,0.02,2.37,0.00,25.94,29.27,31.94,14.38,48.40,1024.58,2026.49,2595.02,2527.49,2863.98,599.46,594.14,49.81,0000 0000 0000 0000 000000
2016-06-05 11:59:17,0.02,2.38,0.00,25.94,29.26,31.96,14.46,48.50,1024.62,2026.70,2595.02,2527.49,2863.98,599.73,594.56,49.87,0000 0000 0000 0000 000000
2016-06-05 12:04:18,0.01,2.38,0.00,25.94,29.25,31.93,14.45,48.45,1024.84,2026.76,2595.01,2527.34,2863.98,600.28,595.21,49.92,0000 0000 0000 0000 000000
2016-06-05 12:09:20,0.02,2.38,0.00,25.94,29.25,31.90,14.52,48.33,1024.86,2026.88,2595.00,2527.16,2863.96,600.13,595.07,49.97,0000 0000 0000 0000 000000
2016-06-05 12:14:21,-0.00,2.38,0.00,25.92,29.25,31.91,14.43,48.39,1024.91,2026.95,2595.00,2527.16,2863.94,600.08,595.34,50.02,0000 0000 0000 0000 000000
2016-06-05 12:19:22,0.01,2.38,0.00,25.92,29.24,31.91,14.47,48.53,1024.92,2026.97,2594.96,2527.05,2863.84,600.25,595.28,50.07,0000 0000 0000 0000 000000
2016-06-05 12:24:24,0.01,2.38,0.00,25.91,29.23,31.92,14.47,48.34,1024.92,2026.98,2594.74,2527.02,2863.62,600.30,595.36,50.12,0000 0000 0000 0000 000000
2016-06-05 12:29:25,0.00,2.38,0.00,25.91,29.22,31.93,14.48,48.53,1024.92,2026.99,2594.65,2527.01,2863.54,599.95,595.01,50.17,0000 0000 0000 0000 000000
2016-06-05 12:34:27,0.00,2.38,0.00,25.90,29.22,31.92,14.50,48.68,1024.92,2026.99,2594.51,2527.01,2863.42,599.95,595.11,50.22,0000 0000 0000 0000 000000
2016-06-05 12:39:28,0.01,2.38,0.00,25.90,29.22,31.91,14.49,48.49,1024.92,2026.98,2594.20,2527.01,2863.14,599.93,595.02,50.27,0000 0000 0000 0000 000000
2016-06-05 12:44:30,0.00,2.38,0.00,25.89,29.21,31.91,14.46,48.38,1024.93,2026.98,2594.08,2527.00,2863.10,599.88,594.88,50.32,0000 0000 0000 0000 000000
2016-06-05 12:49:31,0.00,2.38,0.00,25.89,29.20,31.89,14.51,48.23,1024.94,2026.98,2594.03,2527.00,2863.07,600.07,595.15,50.37,0000 0000 0000 0000 000000
2016-06-05 12:54:32,0.00,2.38,0.00,25.90,29.20,31.89,14.38,48.41,1024.93,2026.97,2594.01,2527.00,2863.04,599.71,594.94,50.42,0000 0000 0000 0000 000000